Archiv-/Tagesdaten

--Timestamp---	Temp	Chill	HIndex	Humid	Dewpt	 Wind 	HiWind	WindDir	Rain 	Barom	Solar	 ET  	 UV 
--------------	----	-----	------	-----	-----	------	------	-------	-----	-----	-----	-----	----
20110719 00:00	12.3	12.3	12.3	81	9.1	3	10	202	0.0	1008.4	0	0.025	0.0
20110719 00:05	12.3	12.3	12.3	82	9.3	6	14	180	0.0	1008.3	0	0.000	0.0
20110719 00:10	12.3	12.3	12.3	82	9.3	5	10	180	0.0	1008.3	0	0.000	0.0
20110719 00:15	12.2	12.2	12.2	82	9.2	5	11	202	0.0	1008.3	0	0.000	0.0
20110719 00:20	12.2	12.2	12.2	82	9.2	3	11	180	0.0	1008.3	0	0.000	0.0
20110719 00:25	12.2	12.2	12.2	82	9.2	5	11	202	0.0	1008.3	0	0.000	0.0
20110719 00:30	12.2	12.2	12.2	82	9.2	3	11	180	0.0	1008.3	0	0.000	0.0
20110719 00:35	12.2	12.2	12.2	82	9.2	3	8	180	0.0	1008.2	0	0.000	0.0
20110719 00:40	12.2	12.2	12.2	83	9.4	5	10	180	0.0	1008.2	0	0.000	0.0
20110719 00:45	12.1	12.1	12.1	83	9.3	3	8	180	0.0	1008.2	0	0.000	0.0
20110719 00:50	12.1	12.1	12.1	83	9.3	3	8	180	0.0	1008.1	0	0.000	0.0
20110719 00:55	12.1	12.1	12.1	83	9.3	3	11	180	0.0	1008.2	0	0.000	0.0
20110719 01:00	12.1	12.1	12.1	83	9.3	3	8	180	0.0	1008.2	0	0.025	0.0
20110719 01:05	12.1	12.1	12.1	83	9.3	5	11	202	0.0	1008.1	0	0.000	0.0
20110719 01:10	12.1	12.1	12.1	83	9.3	5	10	180	0.0	1008.1	0	0.000	0.0
20110719 01:15	12.1	12.1	12.1	83	9.3	3	8	180	0.0	1008.0	0	0.000	0.0
20110719 01:20	12.1	12.1	12.1	83	9.3	2	8	180	0.0	1007.9	0	0.000	0.0
20110719 01:25	12.1	12.1	12.1	83	9.3	0	5	180	0.0	1007.8	0	0.000	0.0
20110719 01:30	12.1	12.1	12.1	83	9.3	2	6	180	0.0	1007.8	0	0.000	0.0
20110719 01:35	12.1	12.1	12.1	84	9.5	0	6	180	0.0	1007.8	0	0.000	0.0
20110719 01:40	12.1	12.1	12.1	84	9.5	2	5	180	0.0	1007.7	0	0.000	0.0
20110719 01:45	12.1	12.1	12.1	84	9.4	2	6	180	0.0	1007.7	0	0.000	0.0
20110719 01:50	12.1	12.1	12.1	84	9.4	0	5	180	0.0	1007.6	0	0.000	0.0
20110719 01:55	12.1	12.1	12.1	84	9.4	3	6	180	0.0	1007.6	0	0.000	0.0
20110719 02:00	12.1	12.1	12.1	84	9.4	3	8	180	0.0	1007.6	0	0.025	0.0
20110719 02:05	12.1	12.1	12.1	84	9.4	2	8	180	0.0	1007.7	0	0.000	0.0
20110719 02:10	12.0	12.0	12.0	84	9.4	2	5	180	0.0	1007.5	0	0.000	0.0
20110719 02:15	12.0	12.0	12.0	84	9.4	0	3	180	0.0	1007.5	0	0.000	0.0
20110719 02:20	12.0	12.0	12.0	84	9.4	3	6	180	0.0	1007.5	0	0.000	0.0
20110719 02:25	12.0	12.0	12.0	84	9.4	0	5	180	0.0	1007.4	0	0.000	0.0
20110719 02:30	12.0	12.0	12.0	84	9.4	0	3	180	0.0	1007.3	0	0.000	0.0
20110719 02:35	12.0	12.0	12.0	84	9.4	0	2	180	0.0	1007.1	0	0.000	0.0
20110719 02:40	12.0	12.0	12.0	84	9.4	0	0	-100000	0.0	1007.1	0	0.000	0.0
20110719 02:45	12.0	12.0	12.0	84	9.4	0	3	180	0.0	1007.1	0	0.000	0.0
20110719 02:50	12.0	12.0	12.0	84	9.4	0	2	180	0.0	1007.1	0	0.000	0.0
20110719 02:55	12.1	12.1	12.1	85	9.6	0	2	180	0.0	1007.0	0	0.000	0.0
20110719 03:00	12.1	12.1	12.1	85	9.6	0	6	180	0.0	1007.0	0	0.000	0.0
20110719 03:05	12.1	12.1	12.1	85	9.6	2	6	180	0.0	1007.2	0	0.000	0.0
20110719 03:10	12.0	12.0	12.0	85	9.6	2	6	180	0.0	1007.1	0	0.000	0.0
20110719 03:15	12.0	12.0	12.0	85	9.6	0	2	180	0.0	1007.0	0	0.000	0.0
20110719 03:20	12.0	12.0	12.0	85	9.6	2	6	180	0.0	1006.9	0	0.000	0.0
20110719 03:25	11.9	11.9	11.9	85	9.5	0	5	180	0.0	1006.9	0	0.000	0.0
20110719 03:30	11.8	11.8	11.8	85	9.4	2	3	180	0.0	1007.0	0	0.000	0.0
20110719 03:35	11.8	11.8	11.8	86	9.6	0	3	180	0.0	1006.9	0	0.000	0.0
20110719 03:40	11.8	11.8	11.8	86	9.5	0	2	180	0.0	1006.8	0	0.000	0.0
20110719 03:45	11.8	11.8	11.8	86	9.5	0	2	180	0.0	1006.9	0	0.000	0.0
20110719 03:50	11.8	11.8	11.8	86	9.5	0	6	180	0.0	1006.7	0	0.000	0.0
20110719 03:55	11.8	11.8	11.8	86	9.5	2	6	180	0.0	1006.6	0	0.000	0.0
20110719 04:00	11.7	11.7	11.7	86	9.5	3	10	158	0.0	1006.6	0	0.000	0.0
20110719 04:05	11.7	11.7	11.7	86	9.4	5	10	158	0.0	1006.8	0	0.000	0.0
20110719 04:10	11.7	11.7	11.7	86	9.4	5	10	158	0.0	1006.7	0	0.000	0.0
20110719 04:15	11.7	11.7	11.7	86	9.4	6	18	158	0.0	1006.7	0	0.000	0.0
20110719 04:20	11.7	11.7	11.7	86	9.4	3	10	135	0.0	1006.6	0	0.000	0.0
20110719 04:25	11.7	11.7	11.7	86	9.4	3	6	158	0.0	1006.6	0	0.000	0.0
20110719 04:30	11.7	11.7	11.7	86	9.4	5	10	180	0.0	1006.7	0	0.000	0.0
20110719 04:35	11.7	11.7	11.7	86	9.4	3	10	180	0.0	1006.6	0	0.000	0.0
20110719 04:40	11.7	11.7	11.7	85	9.2	3	8	158	0.0	1006.6	0	0.000	0.0
20110719 04:45	11.7	11.7	11.7	85	9.2	2	8	135	0.0	1006.4	0	0.000	0.0
20110719 04:50	11.7	11.7	11.7	85	9.2	2	6	135	0.0	1006.3	0	0.000	0.0
20110719 04:55	11.7	11.7	11.7	85	9.2	2	8	158	0.0	1006.3	0	0.000	0.0
20110719 05:00	11.7	11.7	11.7	85	9.2	2	8	158	0.0	1006.4	0	0.025	0.0
20110719 05:05	11.7	11.7	11.7	85	9.2	3	5	158	0.0	1006.2	0	0.000	0.0
20110719 05:10	11.7	11.7	11.7	85	9.2	3	10	158	0.0	1006.4	0	0.000	0.0
20110719 05:15	11.7	11.7	11.7	85	9.2	2	6	135	0.0	1006.3	0	0.000	0.0
20110719 05:20	11.7	11.7	11.7	85	9.2	3	10	158	0.0	1006.3	0	0.000	0.0
20110719 05:25	11.6	11.6	11.6	85	9.2	2	10	158	0.0	1006.3	0	0.000	0.0
20110719 05:30	11.6	11.6	11.6	85	9.2	3	6	158	0.0	1006.2	0	0.000	0.0
20110719 05:35	11.6	11.6	11.6	85	9.2	2	6	158	0.0	1006.2	0	0.000	0.0
20110719 05:40	11.6	11.6	11.6	85	9.2	2	6	158	0.0	1006.0	0	0.000	0.0
20110719 05:45	11.6	11.6	11.6	85	9.1	2	10	158	0.0	1006.0	0	0.000	0.0
20110719 05:50	11.6	11.6	11.6	85	9.1	3	6	158	0.0	1006.0	1	0.000	0.0
20110719 05:55	11.6	11.6	11.6	85	9.2	2	5	158	0.0	1006.0	6	0.000	0.0
20110719 06:00	11.6	11.6	11.6	85	9.2	3	6	158	0.0	1006.0	10	0.000	0.0
20110719 06:05	11.6	11.6	11.6	84	9.0	2	6	158	0.0	1006.1	13	0.000	0.0
20110719 06:10	11.6	11.6	11.6	84	8.9	3	6	158	0.0	1006.2	13	0.000	0.0
20110719 06:15	11.5	11.5	11.5	84	8.9	3	6	180	0.0	1006.1	15	0.000	0.0
20110719 06:20	11.4	11.4	11.4	85	9.0	3	8	180	0.0	1006.1	17	0.000	0.0
20110719 06:25	11.4	11.4	11.4	85	9.0	2	5	180	0.0	1006.1	20	0.000	0.0
20110719 06:30	11.3	11.3	11.3	85	8.9	2	5	180	0.0	1006.2	22	0.000	0.0
20110719 06:35	11.3	11.3	11.3	85	8.8	2	6	180	0.0	1006.1	27	0.000	0.0
20110719 06:40	11.2	11.2	11.2	85	8.8	2	6	180	0.0	1006.1	29	0.000	0.0
20110719 06:45	11.2	11.2	11.2	86	8.9	2	6	180	0.0	1006.1	31	0.000	0.0
20110719 06:50	11.2	11.2	11.2	86	8.9	0	5	180	0.0	1005.9	38	0.000	0.0
20110719 06:55	11.2	11.2	11.2	86	8.9	0	3	180	0.0	1005.9	42	0.000	0.0
20110719 07:00	11.3	11.3	11.3	87	9.2	2	5	180	0.0	1005.9	114	0.025	0.0
20110719 07:05	11.5	11.5	11.5	87	9.4	2	6	180	0.0	1005.8	161	0.000	0.0
20110719 07:10	11.8	11.8	11.8	86	9.6	5	8	112	0.0	1005.6	167	0.000	0.0
20110719 07:15	12.2	12.2	12.2	85	9.8	3	8	135	0.0	1005.5	188	0.000	0.2
20110719 07:20	12.6	12.6	12.6	84	10.0	5	8	158	0.0	1005.5	203	0.000	0.5
20110719 07:25	12.8	12.8	12.8	83	10.0	8	11	135	0.0	1005.5	-100000	0.000	0.5
20110719 07:30	12.9	12.9	12.9	83	10.1	5	8	112	0.0	1005.4	825	0.000	0.6
20110719 07:35	13.1	13.1	13.1	82	10.1	8	11	112	0.0	1005.2	252	0.000	0.6
20110719 07:40	13.3	13.3	13.3	81	10.1	8	14	135	0.0	1005.2	268	0.000	0.7
20110719 07:45	13.4	13.4	13.4	80	10.1	8	16	135	0.0	1005.1	289	0.000	0.8
20110719 07:50	13.7	13.7	13.7	80	10.3	10	18	112	0.0	1004.9	325	0.000	0.9
20110719 07:55	13.9	13.9	13.9	79	10.3	10	18	112	0.0	1004.8	367	0.000	1.0
20110719 08:00	14.2	14.2	14.2	78	10.4	10	19	135	0.0	1004.5	282	0.127	0.9
20110719 08:05	14.3	14.3	14.3	77	10.3	6	16	112	0.0	1004.6	191	0.000	0.9
20110719 08:10	14.3	14.3	14.3	76	10.1	6	11	90	0.0	1004.8	227	0.000	1.0
20110719 08:15	14.4	14.4	14.4	76	10.2	6	11	112	0.0	1004.8	181	0.000	1.0
20110719 08:20	14.7	14.7	14.7	75	10.3	8	18	90	0.0	1004.8	380	0.000	1.2
20110719 08:25	14.9	14.9	14.9	75	10.5	5	10	135	0.0	1004.8	114	0.000	1.0
20110719 08:30	15.0	15.0	15.0	74	10.4	6	14	112	0.0	1004.9	254	0.000	1.3
20110719 08:35	15.2	15.2	15.2	72	10.2	8	14	135	0.0	1005.1	373	0.000	1.5
20110719 08:40	15.6	15.6	15.6	71	10.3	8	13	135	0.0	1005.1	471	0.000	1.8
20110719 08:45	15.8	15.8	15.8	69	10.2	13	23	112	0.0	1005.0	430	0.000	1.8
20110719 08:50	15.9	15.9	15.9	70	10.5	13	21	112	0.0	1004.7	518	0.000	2.1
20110719 08:55	16.2	16.2	16.2	69	10.5	13	23	112	0.0	1004.7	551	0.000	2.3
20110719 09:00	16.3	16.3	16.3	68	10.4	14	26	112	0.0	1004.5	581	0.229	2.5
20110719 09:05	16.4	16.4	16.4	67	10.3	16	29	112	0.0	1004.6	637	0.000	2.6
20110719 09:10	16.3	16.3	16.3	67	10.2	13	27	112	0.0	1004.5	287	0.000	2.2
20110719 09:15	16.1	16.1	16.1	69	10.4	11	23	112	0.0	1004.5	360	0.000	2.4
20110719 09:20	16.3	16.3	16.3	69	10.6	10	21	112	0.0	1004.4	545	0.000	2.8
20110719 09:25	16.6	16.6	16.6	68	10.6	10	19	112	0.0	1004.4	564	0.000	3.0
20110719 09:30	16.7	16.7	16.7	68	10.8	8	19	90	0.0	1004.4	507	0.000	2.8
20110719 09:35	16.6	16.6	16.6	68	10.6	6	11	112	0.0	1004.5	207	0.000	2.5
20110719 09:40	16.3	16.3	16.3	68	10.4	10	19	90	0.0	1004.4	386	0.000	3.2
20110719 09:45	16.5	16.5	16.5	69	10.8	11	19	90	0.0	1004.3	610	0.000	3.6
20110719 09:50	16.8	16.8	16.8	68	10.8	11	23	90	0.0	1004.3	619	0.000	3.8
20110719 09:55	17.0	17.0	17.0	67	10.8	11	23	112	0.0	1004.2	627	0.000	3.9
20110719 10:00	17.3	17.3	17.3	67	11.1	10	21	135	0.0	1004.2	627	0.305	4.1
20110719 10:05	17.3	17.3	17.3	65	10.6	11	21	90	0.0	1004.2	634	0.000	4.2
20110719 10:10	17.2	17.2	17.2	67	11.0	11	21	90	0.0	1004.2	654	0.000	4.4
20110719 10:15	17.2	17.2	17.2	67	11.0	11	23	90	0.0	1004.1	666	0.000	4.6
20110719 10:20	17.4	17.4	17.4	65	10.7	10	23	112	0.0	1004.1	681	0.000	4.8
20110719 10:25	17.6	17.6	17.6	66	11.1	13	26	112	0.0	1003.9	685	0.000	4.9
20110719 10:30	17.8	17.8	17.8	65	11.1	14	29	112	0.0	1003.9	698	0.000	5.1
20110719 10:35	17.8	17.8	17.8	65	11.2	16	31	135	0.0	1003.7	709	0.000	5.2
20110719 10:40	17.9	17.9	17.9	65	11.3	14	27	112	0.0	1003.6	711	0.000	5.4
20110719 10:45	18.0	18.0	18.0	66	11.5	10	23	90	0.0	1003.6	721	0.000	5.5
20110719 10:50	18.1	18.1	18.1	65	11.4	11	27	112	0.0	1003.5	732	0.000	5.7
20110719 10:55	18.3	18.3	18.3	66	11.9	14	29	112	0.0	1003.6	741	0.000	5.7
20110719 11:00	18.6	18.6	18.6	64	11.6	16	26	112	0.0	1003.6	764	0.432	6.0
20110719 11:05	18.6	18.6	18.6	62	11.1	18	29	112	0.0	1003.4	634	0.000	5.2
20110719 11:10	18.6	18.6	18.6	64	11.6	16	29	112	0.0	1003.6	779	0.000	6.1
20110719 11:15	18.7	18.7	18.7	65	11.9	16	26	135	0.0	1003.4	779	0.000	6.2
20110719 11:20	18.8	18.8	18.8	64	11.8	14	24	112	0.0	1003.4	362	0.000	4.5
20110719 11:25	18.9	18.9	18.9	65	12.2	14	24	135	0.0	1003.4	874	0.000	7.0
20110719 11:30	18.9	18.9	18.9	66	12.4	11	23	90	0.0	1003.5	564	0.000	5.7
20110719 11:35	18.9	18.9	18.9	65	12.2	13	21	112	0.0	1003.5	397	0.000	5.1
20110719 11:40	19.2	19.2	19.2	65	12.4	10	16	112	0.0	1003.6	951	0.000	7.5
20110719 11:45	19.2	19.2	19.2	65	12.5	8	16	90	0.0	1003.7	711	0.000	6.1
20110719 11:50	19.3	19.3	19.3	65	12.5	10	19	90	0.0	1003.6	852	0.000	6.4
20110719 11:55	19.3	19.3	19.3	63	12.1	10	19	135	0.0	1003.6	625	0.000	5.4
20110719 12:00	19.4	19.4	19.4	64	12.5	6	16	90	0.0	1003.5	879	0.457	7.1
20110719 12:05	19.6	19.6	19.6	63	12.4	13	21	68	0.0	1003.3	890	0.000	7.3
20110719 12:10	19.8	19.8	19.8	63	12.5	8	18	135	0.0	1002.9	898	0.000	7.7
20110719 12:15	19.9	19.9	19.9	62	12.4	11	21	135	0.0	1002.8	898	0.000	7.8
20110719 12:20	19.9	19.9	19.9	63	12.7	10	23	68	0.0	1002.6	912	0.000	8.0
20110719 12:25	20.1	20.1	20.1	63	12.8	13	23	68	0.0	1002.7	906	0.000	7.9
20110719 12:30	20.2	20.2	20.2	65	13.4	10	19	90	0.0	1002.6	893	0.000	7.9
20110719 12:35	20.3	20.3	20.3	62	12.8	11	21	68	0.0	1002.7	900	0.000	8.2
20110719 12:40	20.6	20.6	20.6	62	13.0	10	19	112	0.0	1002.4	863	0.000	8.0
20110719 12:45	20.4	20.4	20.4	63	13.2	11	18	112	0.0	1002.5	886	0.000	8.1
20110719 12:50	20.5	20.5	20.5	62	13.0	8	21	112	0.0	1002.5	876	0.000	8.1
20110719 12:55	20.6	20.6	20.6	63	13.3	6	16	90	0.0	1002.4	847	0.000	8.0
20110719 13:00	20.6	20.6	20.6	62	13.1	6	16	90	0.0	1002.3	903	0.559	8.4
20110719 13:05	20.7	20.7	20.7	64	13.6	6	19	68	0.0	1002.3	904	0.000	8.3
20110719 13:10	20.9	20.9	20.9	61	13.1	6	18	112	0.0	1002.1	899	0.000	8.4
20110719 13:15	21.0	21.0	21.0	60	12.9	6	18	90	0.0	1002.1	887	0.000	8.4
20110719 13:20	21.2	21.2	21.2	63	13.8	6	14	112	0.0	1002.1	884	0.000	8.4
20110719 13:25	21.3	21.3	21.3	62	13.7	8	18	68	0.0	1002.3	882	0.000	8.5
20110719 13:30	21.3	21.3	21.3	61	13.5	5	10	68	0.0	1002.2	878	0.000	8.4
20110719 13:35	21.3	21.3	21.3	60	13.2	8	19	135	0.0	1002.0	876	0.000	8.4
20110719 13:40	21.6	21.6	21.6	60	13.5	3	11	135	0.0	1001.9	876	0.000	8.4
20110719 13:45	21.8	21.8	21.8	60	13.7	6	16	135	0.0	1001.9	879	0.000	8.4
20110719 13:50	21.9	21.9	21.9	59	13.5	6	11	90	0.0	1001.8	875	0.000	8.3
20110719 13:55	21.9	21.9	21.9	59	13.6	8	16	90	0.0	1001.8	874	0.000	8.3
20110719 14:00	21.9	21.9	21.9	59	13.5	5	11	68	0.0	1001.9	888	0.559	7.7
20110719 14:05	22.2	22.2	22.2	57	13.2	6	14	158	0.0	1001.9	868	0.000	8.2
20110719 14:10	22.3	22.3	22.3	59	13.9	5	14	22	0.0	1001.8	870	0.000	8.2
20110719 14:15	22.5	22.5	22.5	60	14.3	8	19	158	0.0	1001.6	867	0.000	8.2
20110719 14:20	22.6	22.6	22.6	56	13.4	6	14	112	0.0	1001.6	863	0.000	8.1
20110719 14:25	22.6	22.6	22.6	57	13.6	8	11	112	0.0	1001.4	859	0.000	8.0
20110719 14:30	22.7	22.7	22.7	58	14.0	6	11	112	0.0	1001.4	854	0.000	7.9
20110719 14:35	22.7	22.7	22.7	59	14.3	10	21	68	0.0	1001.3	851	0.000	7.8
20110719 14:40	22.9	22.9	22.9	57	13.9	6	14	90	0.0	1001.4	844	0.000	7.7
20110719 14:45	22.9	22.9	22.9	59	14.4	6	14	68	0.0	1001.3	845	0.000	7.4
20110719 14:50	22.9	22.9	22.9	55	13.4	10	18	68	0.0	1001.2	834	0.000	7.5
20110719 14:55	22.9	22.9	22.9	58	14.2	10	19	68	0.0	1001.1	770	0.000	6.9
20110719 15:00	22.9	22.9	22.9	59	14.4	8	19	68	0.0	1001.1	790	0.559	7.1
20110719 15:05	22.9	22.9	22.9	59	14.5	8	18	68	0.0	1001.1	816	0.000	7.2
20110719 15:10	23.2	23.2	23.2	56	13.9	6	11	112	0.0	1001.1	808	0.000	7.0
20110719 15:15	23.3	23.3	23.3	58	14.5	10	19	45	0.0	1001.0	804	0.000	6.9
20110719 15:20	23.3	23.3	23.3	57	14.3	6	19	112	0.0	1001.0	501	0.000	4.9
20110719 15:25	23.2	23.2	23.2	58	14.5	8	14	68	0.0	1000.9	795	0.000	6.5
20110719 15:30	23.2	23.2	23.2	58	14.5	8	19	135	0.0	1000.7	764	0.000	6.3
20110719 15:35	23.4	23.4	23.4	57	14.4	11	18	68	0.0	1000.7	751	0.000	5.5
20110719 15:40	23.3	23.3	23.3	57	14.3	10	18	45	0.0	1000.6	534	0.000	4.9
20110719 15:45	23.2	23.2	23.2	58	14.4	10	16	68	0.0	1000.4	784	0.000	5.8
20110719 15:50	23.3	23.3	23.3	55	13.8	11	26	68	0.0	1000.4	734	0.000	5.7
20110719 15:55	23.3	23.3	23.3	56	14.1	13	23	45	0.0	1000.3	716	0.000	5.3
20110719 16:00	23.3	23.3	23.3	56	14.0	10	18	68	0.0	1000.3	524	0.483	4.7
20110719 16:05	23.4	23.4	23.4	55	13.8	5	8	90	0.0	1000.4	737	0.000	5.4
20110719 16:10	23.7	23.7	23.7	53	13.5	6	11	90	0.0	1000.3	715	0.000	5.0
20110719 16:15	23.7	23.7	23.7	55	14.1	10	16	68	0.0	1000.4	680	0.000	4.9
20110719 16:20	23.8	23.8	23.8	56	14.5	8	16	68	0.0	1000.2	692	0.000	4.8
20110719 16:25	24.1	24.1	25.4	53	13.9	8	16	68	0.0	1000.2	685	0.000	4.7
20110719 16:30	24.1	24.1	25.4	53	13.9	11	21	45	0.0	1000.3	675	0.000	4.5
20110719 16:35	24.1	24.1	25.4	55	14.4	11	18	45	0.0	1000.2	656	0.000	4.3
20110719 16:40	24.1	24.1	25.4	55	14.5	5	11	112	0.0	1000.1	651	0.000	4.2
20110719 16:45	24.1	24.1	25.4	56	14.8	8	16	68	0.0	1000.0	592	0.000	3.9
20110719 16:50	24.1	24.1	25.4	54	14.2	8	16	45	0.0	1000.0	604	0.000	3.7
20110719 16:55	24.1	24.1	25.4	53	13.9	10	16	45	0.0	999.8	578	0.000	3.4
20110719 17:00	24.1	24.1	25.4	53	13.9	11	19	45	0.0	999.7	483	0.457	3.1
20110719 17:05	24.0	24.0	25.4	53	13.8	11	19	68	0.0	999.6	502	0.000	3.0
20110719 17:10	24.1	24.1	25.4	53	13.9	8	16	45	0.0	999.5	520	0.000	3.0
20110719 17:15	24.1	24.1	25.4	53	13.9	10	18	22	0.0	999.6	440	0.000	2.6
20110719 17:20	23.9	23.9	25.3	54	14.1	8	14	68	0.0	999.6	428	0.000	2.4
20110719 17:25	23.8	23.8	23.8	52	13.4	11	18	45	0.0	999.6	463	0.000	2.6
20110719 17:30	23.8	23.8	23.8	53	13.6	8	16	68	0.0	999.6	405	0.000	2.2
20110719 17:35	23.9	23.9	25.3	53	13.7	8	16	45	0.0	999.6	409	0.000	2.1
20110719 17:40	23.8	23.8	23.8	53	13.6	11	23	45	0.0	999.5	316	0.000	1.8
20110719 17:45	23.7	23.7	23.7	52	13.3	10	19	68	0.0	999.4	269	0.000	1.7
20110719 17:50	23.6	23.6	23.6	52	13.1	10	18	68	0.0	999.4	239	0.000	1.5
20110719 17:55	23.4	23.4	23.4	53	13.3	8	16	68	0.0	999.4	266	0.000	1.5
20110719 18:00	23.4	23.4	23.4	53	13.3	10	19	68	0.0	999.2	265	0.305	1.4
20110719 18:05	23.3	23.3	23.3	52	12.9	10	18	68	0.0	999.2	255	0.000	1.3
20110719 18:10	23.3	23.3	23.3	54	13.4	6	14	68	0.0	999.2	234	0.000	1.2
20110719 18:15	23.2	23.2	23.2	54	13.4	8	14	68	0.0	999.0	230	0.000	1.2
20110719 18:20	23.2	23.2	23.2	55	13.7	5	10	68	0.0	999.0	217	0.000	1.1
20110719 18:25	23.2	23.2	23.2	56	13.9	3	10	68	0.0	999.0	184	0.000	0.9
20110719 18:30	23.1	23.1	23.1	53	13.0	5	10	68	0.0	999.0	169	0.000	0.8
20110719 18:35	23.1	23.1	23.1	54	13.3	3	11	90	0.0	998.9	155	0.000	0.7
20110719 18:40	23.1	23.1	23.1	55	13.5	3	8	90	0.0	998.9	125	0.000	0.6
20110719 18:45	22.9	22.9	22.9	54	13.1	5	10	90	0.0	999.0	107	0.000	0.5
20110719 18:50	22.8	22.8	22.8	55	13.3	5	10	90	0.0	999.0	94	0.000	0.2
20110719 18:55	22.8	22.8	22.8	56	13.5	3	6	90	0.0	998.9	93	0.000	0.0
20110719 19:00	22.7	22.7	22.7	57	13.7	3	10	68	0.0	998.8	93	0.152	0.0
20110719 19:05	22.5	22.5	22.5	59	14.1	5	8	68	0.0	998.3	84	0.000	0.0
20110719 19:10	22.3	22.3	22.3	59	13.9	5	10	68	0.0	998.3	79	0.000	0.0
20110719 19:15	22.2	22.2	22.2	59	13.8	3	6	68	0.0	998.2	75	0.000	0.0
20110719 19:20	22.0	22.0	22.0	60	13.9	5	10	68	0.0	998.2	68	0.000	0.0
20110719 19:25	21.8	21.8	21.8	60	13.7	3	8	68	0.0	998.2	63	0.000	0.0
20110719 19:30	21.7	21.7	21.7	61	13.9	2	8	68	0.0	998.1	56	0.000	0.0
20110719 19:35	21.6	21.6	21.6	62	14.0	2	8	68	0.0	998.0	49	0.000	0.0
20110719 19:40	21.5	21.5	21.5	63	14.2	5	8	68	0.0	998.0	44	0.000	0.0
20110719 19:45	21.3	21.3	21.3	64	14.2	5	8	68	0.0	997.9	45	0.000	0.0
20110719 19:50	21.2	21.2	21.2	64	14.1	5	8	68	0.0	997.9	50	0.000	0.0
20110719 19:55	21.1	21.1	21.1	65	14.2	3	6	68	0.0	997.9	50	0.000	0.0
20110719 20:00	20.9	20.9	20.9	65	14.1	3	8	68	0.0	997.8	49	0.076	0.0
20110719 20:05	20.9	20.9	20.9	65	14.1	3	8	68	0.0	997.7	53	0.000	0.0
20110719 20:10	20.8	20.8	20.8	65	14.0	3	8	68	0.0	997.7	53	0.000	0.0
20110719 20:15	20.7	20.7	20.7	65	13.9	5	8	68	0.0	997.7	44	0.000	0.0
20110719 20:20	20.6	20.6	20.6	66	14.0	5	8	68	0.0	997.6	39	0.000	0.0
20110719 20:25	20.6	20.6	20.6	66	14.0	3	6	68	0.0	997.6	30	0.000	0.0
20110719 20:30	20.4	20.4	20.4	66	13.9	2	6	90	0.0	997.5	15	0.000	0.0
20110719 20:35	20.4	20.4	20.4	65	13.6	5	11	90	0.0	997.6	7	0.000	0.0
20110719 20:40	20.4	20.4	20.4	65	13.6	3	10	68	0.0	997.5	1	0.000	0.0
20110719 20:45	20.4	20.4	20.4	65	13.6	3	8	68	0.0	997.6	0	0.000	0.0
20110719 20:50	20.3	20.3	20.3	65	13.5	3	6	90	0.0	997.5	0	0.000	0.0
20110719 20:55	20.3	20.3	20.3	65	13.5	5	8	68	0.0	997.4	0	0.000	0.0
20110719 21:00	20.2	20.2	20.2	68	14.1	6	11	90	0.2	997.3	0	0.025	0.0
20110719 21:05	19.7	19.7	19.7	70	14.1	6	10	90	0.0	997.1	0	0.000	0.0
20110719 21:10	19.4	19.4	19.4	73	14.4	6	11	135	0.0	997.8	0	0.000	0.0
20110719 21:15	18.8	18.8	18.8	67	12.6	19	34	248	0.0	998.9	0	0.000	0.0
20110719 21:20	17.8	17.8	17.8	70	12.2	21	37	225	0.0	999.2	0	0.000	0.0
20110719 21:25	17.2	17.2	17.2	74	12.5	27	45	248	0.0	999.7	0	0.000	0.0
20110719 21:30	16.8	16.8	16.8	75	12.4	19	37	248	0.0	999.9	0	0.000	0.0
20110719 21:35	16.4	16.4	16.4	78	12.5	11	27	248	0.6	1000.3	0	0.000	0.0
20110719 21:40	15.4	15.4	15.4	82	12.4	16	29	270	2.4	1000.2	0	0.000	0.0
20110719 21:45	15.0	15.0	15.0	85	12.5	14	31	248	0.4	1000.7	0	0.000	0.0
20110719 21:50	14.7	14.7	14.7	87	12.5	16	29	270	0.4	1001.0	0	0.000	0.0
20110719 21:55	14.6	14.6	14.6	88	12.6	18	31	270	1.2	1001.2	0	0.000	0.0
20110719 22:00	14.6	14.6	14.6	89	12.8	13	23	292	0.8	1000.9	0	0.051	0.0
20110719 22:05	14.6	14.6	14.6	89	12.8	13	26	292	0.4	1000.7	0	0.000	0.0
20110719 22:10	14.6	14.6	14.6	89	12.8	10	19	315	0.2	1000.4	0	0.000	0.0
20110719 22:15	14.6	14.6	14.6	90	12.9	8	18	292	0.0	1000.6	0	0.000	0.0
20110719 22:20	14.5	14.5	14.5	90	12.9	6	11	292	0.2	1000.8	0	0.000	0.0
20110719 22:25	14.5	14.5	14.5	90	12.9	5	10	292	0.2	1000.7	0	0.000	0.0
20110719 22:30	14.5	14.5	14.5	90	12.9	0	5	292	0.2	1000.6	0	0.000	0.0
20110719 22:35	14.6	14.6	14.6	91	13.1	0	8	292	0.2	1000.7	0	0.000	0.0
20110719 22:40	14.5	14.5	14.5	91	13.0	2	6	292	0.2	1000.8	0	0.000	0.0
20110719 22:45	14.5	14.5	14.5	91	13.0	3	6	292	0.0	1000.7	0	0.000	0.0
20110719 22:50	14.5	14.5	14.5	91	13.0	3	6	292	0.2	1000.7	0	0.000	0.0
20110719 22:55	14.4	14.4	14.4	91	13.0	5	8	270	0.0	1000.9	0	0.000	0.0
20110719 23:00	14.4	14.4	14.4	91	13.0	6	10	270	0.2	1001.1	0	0.000	0.0
20110719 23:05	14.4	14.4	14.4	91	13.0	6	13	225	0.0	1001.0	0	0.000	0.0
20110719 23:10	14.4	14.4	14.4	91	12.9	6	13	248	0.0	1001.1	0	0.000	0.0
20110719 23:15	14.4	14.4	14.4	91	12.9	8	16	225	0.0	1001.2	0	0.000	0.0
20110719 23:20	14.4	14.4	14.4	91	13.0	6	14	225	0.0	1001.2	0	0.000	0.0
20110719 23:25	14.5	14.5	14.5	92	13.2	10	16	270	0.0	1001.2	0	0.000	0.0
20110719 23:30	14.6	14.6	14.6	92	13.3	6	11	270	0.2	1001.2	0	0.000	0.0
20110719 23:35	14.6	14.6	14.6	92	13.3	6	14	270	0.0	1001.2	0	0.000	0.0
20110719 23:40	14.6	14.6	14.6	92	13.3	11	19	248	0.0	1001.2	0	0.000	0.0
20110719 23:45	14.6	14.6	14.6	92	13.3	10	21	248	0.0	1001.1	0	0.000	0.0
20110719 23:50	14.6	14.6	14.6	92	13.3	10	19	270	0.2	1001.1	0	0.000	0.0
20110719 23:55	14.6	14.6	14.6	92	13.3	11	19	270	0.0	1001.1	0	0.000	0.0



Please note the license to use and transfer of this data:
http://creativecommons.org/licenses/by-nc-sa/3.0/deed.en

Bitte beachten sie die Lizenz zur Verwertung und Weitergabe der Daten:
http://creativecommons.org/licenses/by-nc-sa/3.0/deed.de

zurück zur Übersicht der Archivdaten (Monats und Tagesdaten)

Cookies helfen bei der Bereitstellung von Inhalten. Durch die Nutzung dieser Seiten erklärst du dich damit einverstanden, dass Cookies auf deinem Rechner gespeichert werden. Weitere Information